Time,TemperatureF,DewpointF,PressureIn,WindDirection,WindDirectionDegrees,WindSpeedMPH,WindSpeedGustMPH,Humidity,HourlyPrecipIn,Conditions,Clouds,dailyrainin,SoftwareType,DateUTC
2013-06-24 00:01:00,73.2,66.2,29.68,ESE,118,0.0,0.0,76,0.00,,,0.00,WUHU216WMR968SP,2013-06-24 05:01:00,
2013-06-24 00:06:00,73.4,64.4,29.68,SSE,158,0.0,0.0,74,0.00,,,0.00,WUHU216WMR968SP,2013-06-24 05:06:00,
2013-06-24 00:11:00,73.4,64.4,29.68,South,178,2.2,4.0,73,0.00,,,0.00,WUHU216WMR968SP,2013-06-24 05:11:00,
2013-06-24 00:16:00,73.4,64.4,29.68,SSE,159,0.0,4.0,72,0.00,,,0.00,WUHU216WMR968SP,2013-06-24 05:16:00,
2013-06-24 00:21:00,73.2,64.4,29.68,South,183,0.0,4.0,72,0.00,,,0.00,WUHU216WMR968SP,2013-06-24 05:21:00,
2013-06-24 00:26:00,73.4,64.4,29.68,South,183,0.0,3.6,72,0.00,,,0.00,WUHU216WMR968SP,2013-06-24 05:26:00,
2013-06-24 00:31:00,73.6,64.4,29.68,South,183,0.0,2.2,73,0.00,,,0.00,WUHU216WMR968SP,2013-06-24 05:31:00,
2013-06-24 00:36:00,73.8,64.4,29.68,South,183,0.0,2.7,73,0.00,,,0.00,WUHU216WMR968SP,2013-06-24 05:36:00,
2013-06-24 00:41:00,73.9,64.4,29.68,South,183,2.2,3.1,72,0.00,,,0.00,WUHU216WMR968SP,2013-06-24 05:41:00,
2013-06-24 00:46:00,73.9,62.6,29.68,ESE,110,0.0,3.1,71,0.00,,,0.00,WUHU216WMR968SP,2013-06-24 05:46:00,
2013-06-24 00:51:00,73.8,62.6,29.68,SSW,193,0.0,0.0,70,0.00,,,0.00,WUHU216WMR968SP,2013-06-24 05:51:00,
2013-06-24 00:57:00,73.6,62.6,29.68,SE,146,0.0,0.0,70,0.00,,,0.00,WUHU216WMR968SP,2013-06-24 05:57:00,
2013-06-24 01:02:00,73.2,62.6,29.68,SE,146,0.0,0.0,70,0.00,,,0.00,WUHU216WMR968SP,2013-06-24 06:02:00,
2013-06-24 01:07:00,72.9,62.6,29.68,SE,146,0.0,0.0,70,0.00,,,0.00,WUHU216WMR968SP,2013-06-24 06:07:00,
2013-06-24 01:12:00,72.7,62.6,29.68,SE,146,0.0,0.0,71,0.00,,,0.00,WUHU216WMR968SP,2013-06-24 06:12:00,
2013-06-24 01:17:00,72.7,64.4,29.68,SE,146,0.0,0.0,72,0.00,,,0.00,WUHU216WMR968SP,2013-06-24 06:17:00,
2013-06-24 01:23:00,72.7,64.4,29.68,SE,146,0.0,0.0,73,0.00,,,0.00,WUHU216WMR968SP,2013-06-24 06:23:00,
2013-06-24 01:28:00,72.5,64.4,29.68,SE,146,0.0,0.0,75,0.00,,,0.00,WUHU216WMR968SP,2013-06-24 06:28:00,
2013-06-24 01:33:00,72.3,62.6,29.68,SE,146,0.0,0.0,75,0.00,,,0.00,WUHU216WMR968SP,2013-06-24 06:33:00,
2013-06-24 01:38:00,72.1,62.6,29.71,SE,146,0.0,0.0,75,0.00,,,0.00,WUHU216WMR968SP,2013-06-24 06:38:00,
2013-06-24 01:44:00,72.0,62.6,29.71,SE,146,0.0,0.0,75,0.00,,,0.00,WUHU216WMR968SP,2013-06-24 06:44:00,
2013-06-24 01:49:00,71.8,62.6,29.71,SE,146,0.0,0.0,75,0.00,,,0.00,WUHU216WMR968SP,2013-06-24 06:49:00,
2013-06-24 01:54:00,71.8,64.4,29.71,SE,146,0.0,0.0,76,0.00,,,0.00,WUHU216WMR968SP,2013-06-24 06:54:00,
2013-06-24 01:59:00,71.8,64.4,29.71,SE,146,0.0,0.0,77,0.00,,,0.00,WUHU216WMR968SP,2013-06-24 06:59:00,
2013-06-24 02:04:00,71.8,64.4,29.71,SE,146,0.0,0.0,78,0.00,,,0.00,WUHU216WMR968SP,2013-06-24 07:04:00,
2013-06-24 02:10:00,71.6,64.4,29.68,SE,146,0.0,0.0,79,0.00,,,0.00,WUHU216WMR968SP,2013-06-24 07:10:00,
2013-06-24 02:15:00,71.6,64.4,29.68,SE,146,0.0,0.0,79,0.00,,,0.00,WUHU216WMR968SP,2013-06-24 07:15:00,
2013-06-24 02:20:00,71.4,64.4,29.68,SE,146,0.0,0.0,80,0.00,,,0.00,WUHU216WMR968SP,2013-06-24 07:20:00,
2013-06-24 02:25:00,71.1,64.4,29.71,SE,146,0.0,0.0,80,0.00,,,0.00,WUHU216WMR968SP,2013-06-24 07:25:00,
2013-06-24 02:30:00,71.1,64.4,29.71,SE,146,0.0,0.0,80,0.00,,,0.00,WUHU216WMR968SP,2013-06-24 07:30:00,
2013-06-24 02:35:00,71.2,64.4,29.71,SE,146,0.0,0.0,80,0.00,,,0.00,WUHU216WMR968SP,2013-06-24 07:35:00,
2013-06-24 02:40:00,71.4,66.2,29.71,SE,146,0.0,0.0,82,0.00,,,0.00,WUHU216WMR968SP,2013-06-24 07:40:00,
2013-06-24 02:46:00,71.6,66.2,29.71,SE,146,0.0,0.0,82,0.00,,,0.00,WUHU216WMR968SP,2013-06-24 07:46:00,
2013-06-24 02:51:00,71.6,66.2,29.71,SSE,155,0.0,2.2,83,0.00,,,0.00,WUHU216WMR968SP,2013-06-24 07:51:00,
2013-06-24 02:56:00,71.4,66.2,29.71,SE,131,0.0,2.2,83,0.00,,,0.00,WUHU216WMR968SP,2013-06-24 07:56:00,
2013-06-24 03:01:00,71.4,66.2,29.71,South,183,0.0,2.7,83,0.00,,,0.00,WUHU216WMR968SP,2013-06-24 08:01:00,
2013-06-24 03:06:00,71.2,66.2,29.71,SE,144,0.0,3.1,83,0.00,,,0.00,WUHU216WMR968SP,2013-06-24 08:06:00,
2013-06-24 03:11:00,71.2,66.2,29.68,South,190,0.0,3.1,84,0.00,,,0.00,WUHU216WMR968SP,2013-06-24 08:11:00,
2013-06-24 03:16:00,71.2,66.2,29.68,SSE,153,0.0,3.1,84,0.00,,,0.00,WUHU216WMR968SP,2013-06-24 08:16:00,
2013-06-24 03:21:00,71.4,66.2,29.68,SSE,153,0.0,3.1,84,0.00,,,0.00,WUHU216WMR968SP,2013-06-24 08:21:00,
2013-06-24 03:26:00,71.6,66.2,29.68,SSE,153,0.0,0.0,84,0.00,,,0.00,WUHU216WMR968SP,2013-06-24 08:26:00,
2013-06-24 03:31:00,71.6,66.2,29.68,SSE,153,0.0,0.0,85,0.00,,,0.00,WUHU216WMR968SP,2013-06-24 08:31:00,
2013-06-24 03:37:00,71.4,66.2,29.68,SSE,153,0.0,0.0,85,0.00,,,0.00,WUHU216WMR968SP,2013-06-24 08:37:00,
2013-06-24 03:42:00,71.2,66.2,29.68,SSE,153,0.0,0.0,85,0.00,,,0.00,WUHU216WMR968SP,2013-06-24 08:42:00,
2013-06-24 03:47:00,71.2,66.2,29.68,SSE,155,0.0,2.2,85,0.00,,,0.00,WUHU216WMR968SP,2013-06-24 08:47:00,
2013-06-24 03:52:00,71.1,66.2,29.68,South,182,0.0,2.7,85,0.00,,,0.00,WUHU216WMR968SP,2013-06-24 08:52:00,
2013-06-24 03:57:00,71.1,66.2,29.68,South,182,0.0,2.7,85,0.00,,,0.00,WUHU216WMR968SP,2013-06-24 08:57:00,
2013-06-24 04:03:00,71.2,66.2,29.68,South,182,0.0,2.7,85,0.00,,,0.00,WUHU216WMR968SP,2013-06-24 09:03:00,
2013-06-24 04:08:00,71.4,68.0,29.71,South,182,0.0,2.2,86,0.00,,,0.00,WUHU216WMR968SP,2013-06-24 09:08:00,
2013-06-24 04:13:00,71.4,68.0,29.71,South,182,0.0,0.0,86,0.00,,,0.00,WUHU216WMR968SP,2013-06-24 09:13:00,
2013-06-24 04:18:00,71.4,68.0,29.71,South,182,0.0,0.0,87,0.00,,,0.00,WUHU216WMR968SP,2013-06-24 09:18:00,
2013-06-24 04:23:00,71.2,68.0,29.71,South,182,0.0,0.0,87,0.00,,,0.00,WUHU216WMR968SP,2013-06-24 09:23:00,
2013-06-24 04:28:00,71.1,68.0,29.71,South,182,0.0,0.0,87,0.00,,,0.00,WUHU216WMR968SP,2013-06-24 09:28:00,
2013-06-24 04:33:00,70.9,68.0,29.71,South,182,0.0,0.0,87,0.00,,,0.00,WUHU216WMR968SP,2013-06-24 09:33:00,
2013-06-24 04:39:00,70.7,68.0,29.71,South,182,0.0,0.0,87,0.00,,,0.00,WUHU216WMR968SP,2013-06-24 09:39:00,
2013-06-24 04:44:00,70.7,68.0,29.71,South,182,0.0,0.0,87,0.00,,,0.00,WUHU216WMR968SP,2013-06-24 09:44:00,
2013-06-24 04:49:00,70.7,68.0,29.71,South,182,0.0,0.0,87,0.00,,,0.00,WUHU216WMR968SP,2013-06-24 09:49:00,
2013-06-24 04:54:00,70.7,68.0,29.71,South,182,0.0,0.0,87,0.00,,,0.00,WUHU216WMR968SP,2013-06-24 09:54:00,
2013-06-24 04:59:00,71.1,68.0,29.71,South,182,0.0,0.0,87,0.00,,,0.00,WUHU216WMR968SP,2013-06-24 09:59:00,
2013-06-24 05:05:00,70.9,68.0,29.71,South,182,0.0,0.0,88,0.00,,,0.00,WUHU216WMR968SP,2013-06-24 10:05:00,
2013-06-24 05:10:00,70.7,68.0,29.71,South,182,0.0,0.0,88,0.00,,,0.00,WUHU216WMR968SP,2013-06-24 10:10:00,
2013-06-24 05:15:00,70.5,66.2,29.71,South,182,0.0,0.0,88,0.00,,,0.00,WUHU216WMR968SP,2013-06-24 10:15:00,
2013-06-24 05:20:00,70.3,66.2,29.71,South,182,0.0,0.0,88,0.00,,,0.00,WUHU216WMR968SP,2013-06-24 10:20:00,
2013-06-24 05:25:00,70.3,66.2,29.71,South,182,0.0,0.0,88,0.00,,,0.00,WUHU216WMR968SP,2013-06-24 10:25:00,
2013-06-24 05:30:00,70.2,66.2,29.71,South,182,0.0,0.0,88,0.00,,,0.00,WUHU216WMR968SP,2013-06-24 10:30:00,
2013-06-24 05:35:00,70.0,66.2,29.71,South,182,0.0,0.0,88,0.00,,,0.00,WUHU216WMR968SP,2013-06-24 10:35:00,
2013-06-24 05:40:00,70.2,66.2,29.71,South,182,0.0,0.0,88,0.00,,,0.00,WUHU216WMR968SP,2013-06-24 10:40:00,
2013-06-24 05:45:00,70.5,66.2,29.71,South,182,0.0,0.0,89,0.00,,,0.00,WUHU216WMR968SP,2013-06-24 10:45:00,
2013-06-24 05:51:00,70.5,66.2,29.71,South,182,0.0,0.0,89,0.00,,,0.00,WUHU216WMR968SP,2013-06-24 10:51:00,
2013-06-24 05:56:00,70.3,66.2,29.71,South,182,0.0,0.0,89,0.00,,,0.00,WUHU216WMR968SP,2013-06-24 10:56:00,
2013-06-24 06:01:00,70.2,66.2,29.71,South,182,0.0,0.0,89,0.00,,,0.00,WUHU216WMR968SP,2013-06-24 11:01:00,
2013-06-24 06:06:00,70.2,66.2,29.71,South,182,0.0,0.0,89,0.00,,,0.00,WUHU216WMR968SP,2013-06-24 11:06:00,
2013-06-24 06:11:00,70.2,66.2,29.71,South,182,0.0,0.0,89,0.00,,,0.00,WUHU216WMR968SP,2013-06-24 11:11:00,
2013-06-24 06:17:00,70.3,66.2,29.71,South,182,0.0,0.0,89,0.00,,,0.00,WUHU216WMR968SP,2013-06-24 11:17:00,
2013-06-24 06:22:00,71.1,68.0,29.71,South,182,0.0,0.0,90,0.00,,,0.00,WUHU216WMR968SP,2013-06-24 11:22:00,
2013-06-24 06:27:00,71.8,68.0,29.71,South,182,0.0,0.0,90,0.00,,,0.00,WUHU216WMR968SP,2013-06-24 11:27:00,
2013-06-24 06:32:00,72.1,68.0,29.71,South,182,0.0,0.0,90,0.00,,,0.00,WUHU216WMR968SP,2013-06-24 11:32:00,
2013-06-24 06:37:00,72.5,69.8,29.71,South,182,0.0,0.0,90,0.00,,,0.00,WUHU216WMR968SP,2013-06-24 11:37:00,
2013-06-24 06:42:00,72.7,69.8,29.74,South,182,0.0,0.0,89,0.00,,,0.00,WUHU216WMR968SP,2013-06-24 11:42:00,
2013-06-24 06:47:00,72.9,69.8,29.74,South,182,0.0,0.0,89,0.00,,,0.00,WUHU216WMR968SP,2013-06-24 11:47:00,
2013-06-24 06:53:00,73.0,69.8,29.74,South,182,0.0,0.0,88,0.00,,,0.00,WUHU216WMR968SP,2013-06-24 11:53:00,
2013-06-24 06:58:00,73.2,69.8,29.74,South,181,0.0,2.7,88,0.00,,,0.00,WUHU216WMR968SP,2013-06-24 11:58:00,
2013-06-24 07:03:00,73.4,69.8,29.74,South,189,0.0,2.7,88,0.00,,,0.00,WUHU216WMR968SP,2013-06-24 12:03:00,
2013-06-24 07:08:00,73.8,69.8,29.74,South,169,0.0,2.7,88,0.00,,,0.00,WUHU216WMR968SP,2013-06-24 12:08:00,
2013-06-24 07:13:00,74.1,69.8,29.74,South,191,0.0,3.6,87,0.00,,,0.00,WUHU216WMR968SP,2013-06-24 12:13:00,
2013-06-24 07:19:00,74.3,69.8,29.74,South,170,0.0,3.6,85,0.00,,,0.00,WUHU216WMR968SP,2013-06-24 12:19:00,
2013-06-24 07:24:00,74.8,69.8,29.74,SSE,152,2.7,5.4,81,0.00,,,0.00,WUHU216WMR968SP,2013-06-24 12:24:00,
2013-06-24 07:29:00,75.0,68.0,29.74,South,178,0.0,5.4,79,0.00,,,0.00,WUHU216WMR968SP,2013-06-24 12:29:00,
2013-06-24 07:34:00,75.2,68.0,29.74,SE,141,0.0,4.0,78,0.00,,,0.00,WUHU216WMR968SP,2013-06-24 12:34:00,
2013-06-24 07:39:00,75.4,68.0,29.74,South,183,0.0,2.7,76,0.00,,,0.00,WUHU216WMR968SP,2013-06-24 12:39:00,
2013-06-24 07:44:00,75.7,66.2,29.74,South,186,0.0,2.7,75,0.00,,,0.00,WUHU216WMR968SP,2013-06-24 12:44:00,
2013-06-24 07:49:00,76.1,68.0,29.74,South,186,0.0,0.0,74,0.00,,,0.00,WUHU216WMR968SP,2013-06-24 12:49:00,
2013-06-24 07:55:00,76.6,66.2,29.74,SSW,197,0.0,0.0,71,0.00,,,0.00,WUHU216WMR968SP,2013-06-24 12:55:00,
2013-06-24 08:00:00,77.4,66.2,29.74,South,183,0.0,2.7,67,0.00,,,0.00,WUHU216WMR968SP,2013-06-24 13:00:00,
2013-06-24 08:05:00,77.7,64.4,29.74,SE,140,0.0,3.6,65,0.00,,,0.00,WUHU216WMR968SP,2013-06-24 13:05:00,
2013-06-24 08:10:00,78.1,66.2,29.74,South,174,0.0,5.8,64,0.00,,,0.00,WUHU216WMR968SP,2013-06-24 13:10:00,
2013-06-24 08:15:00,78.4,64.4,29.74,SE,134,0.0,5.8,63,0.00,,,0.00,WUHU216WMR968SP,2013-06-24 13:15:00,
2013-06-24 08:20:00,79.3,64.4,29.74,South,188,0.0,3.6,62,0.00,,,0.00,WUHU216WMR968SP,2013-06-24 13:20:00,
2013-06-24 08:25:00,80.2,64.4,29.77,South,175,3.1,5.4,58,0.00,,,0.00,WUHU216WMR968SP,2013-06-24 13:25:00,
2013-06-24 08:31:00,82.8,62.6,29.77,SE,125,4.0,5.8,50,0.00,,,0.00,WUHU216WMR968SP,2013-06-24 13:31:00,
2013-06-24 08:36:00,86.2,59.0,29.77,South,181,4.0,5.8,41,0.00,,,0.00,WUHU216WMR968SP,2013-06-24 13:36:00,
2013-06-24 08:41:00,88.9,60.8,29.77,South,184,3.4,5.8,37,0.00,,,0.00,WUHU216WMR968SP,2013-06-24 13:41:00,
2013-06-24 08:46:00,90.9,59.0,29.77,SSW,198,3.6,5.8,34,0.00,,,0.00,WUHU216WMR968SP,2013-06-24 13:46:00,
2013-06-24 08:52:00,92.1,57.2,29.77,SW,218,4.0,5.4,31,0.00,,,0.00,WUHU216WMR968SP,2013-06-24 13:52:00,
2013-06-24 08:57:00,92.3,55.4,29.77,SSE,158,4.1,6.3,28,0.00,,,0.00,WUHU216WMR968SP,2013-06-24 13:57:00,
2013-06-24 09:02:00,93.0,55.4,29.77,South,188,4.6,7.6,28,0.00,,,0.00,WUHU216WMR968SP,2013-06-24 14:02:00,
2013-06-24 09:07:00,93.2,53.6,29.77,South,180,4.9,7.6,27,0.00,,,0.00,WUHU216WMR968SP,2013-06-24 14:07:00,
2013-06-24 09:12:00,94.6,55.4,29.77,SE,140,4.0,7.2,27,0.00,,,0.00,WUHU216WMR968SP,2013-06-24 14:12:00,
2013-06-24 09:17:00,94.6,55.4,29.77,South,183,3.8,6.3,27,0.00,,,0.00,WUHU216WMR968SP,2013-06-24 14:17:00,
2013-06-24 09:22:00,95.0,51.8,29.77,SSW,213,3.1,6.3,24,0.00,,,0.00,WUHU216WMR968SP,2013-06-24 14:22:00,
2013-06-24 09:27:00,95.0,51.8,29.74,SSW,200,3.5,6.3,24,0.00,,,0.00,WUHU216WMR968SP,2013-06-24 14:27:00,
2013-06-24 09:32:00,95.5,53.6,29.74,South,184,4.1,5.8,25,0.00,,,0.00,WUHU216WMR968SP,2013-06-24 14:32:00,
2013-06-24 09:37:00,96.4,53.6,29.74,South,183,2.7,5.8,24,0.00,,,0.00,WUHU216WMR968SP,2013-06-24 14:37:00,
2013-06-24 09:42:00,96.1,53.6,29.74,South,185,4.0,5.4,23,0.00,,,0.00,WUHU216WMR968SP,2013-06-24 14:42:00,
2013-06-24 09:47:00,94.8,55.4,29.74,WSW,248,3.6,6.3,26,0.00,,,0.00,WUHU216WMR968SP,2013-06-24 14:47:00,
2013-06-24 09:52:00,91.4,55.4,29.74,SW,215,4.0,6.3,29,0.00,,,0.00,WUHU216WMR968SP,2013-06-24 14:52:00,
2013-06-24 09:57:00,89.2,57.2,29.74,SW,236,0.0,6.3,33,0.00,,,0.00,WUHU216WMR968SP,2013-06-24 14:57:00,
2013-06-24 10:02:00,88.0,59.0,29.74,SSW,193,3.2,5.4,38,0.00,,,0.00,WUHU216WMR968SP,2013-06-24 15:02:00,
2013-06-24 10:07:00,88.7,59.0,29.74,South,191,4.9,7.6,36,0.00,,,0.00,WUHU216WMR968SP,2013-06-24 15:07:00,
2013-06-24 10:12:00,88.9,59.0,29.74,SW,217,2.9,7.6,36,0.00,,,0.00,WUHU216WMR968SP,2013-06-24 15:12:00,
2013-06-24 10:17:00,87.8,59.0,29.74,West,268,0.0,5.8,37,0.00,,,0.00,WUHU216WMR968SP,2013-06-24 15:17:00,
2013-06-24 10:22:00,88.0,59.0,29.74,WSW,244,3.6,4.0,38,0.00,,,0.00,WUHU216WMR968SP,2013-06-24 15:22:00,
2013-06-24 10:27:00,88.2,59.0,29.74,SSE,154,2.2,4.0,37,0.00,,,0.00,WUHU216WMR968SP,2013-06-24 15:27:00,
2013-06-24 10:33:00,89.1,59.0,29.74,SW,215,2.8,5.8,35,0.00,,,0.00,WUHU216WMR968SP,2013-06-24 15:33:00,
2013-06-24 10:38:00,89.2,57.2,29.74,West,263,3.6,5.8,33,0.00,,,0.00,WUHU216WMR968SP,2013-06-24 15:38:00,
2013-06-24 10:43:00,89.2,59.0,29.74,WSW,258,2.7,3.6,35,0.00,,,0.00,WUHU216WMR968SP,2013-06-24 15:43:00,
2013-06-24 10:48:00,88.5,57.2,29.74,NNW,329,0.0,3.1,35,0.00,,,0.00,WUHU216WMR968SP,2013-06-24 15:48:00,
2013-06-24 10:53:00,88.0,59.0,29.74,SSW,198,2.2,3.6,38,0.00,,,0.00,WUHU216WMR968SP,2013-06-24 15:53:00,
2013-06-24 10:58:00,88.2,57.2,29.74,North,1,0.0,3.6,36,0.00,,,0.00,WUHU216WMR968SP,2013-06-24 15:58:00,
2013-06-24 11:03:00,89.4,60.8,29.74,SSW,206,4.0,5.4,39,0.00,,,0.00,WUHU216WMR968SP,2013-06-24 16:03:00,
2013-06-24 11:08:00,89.6,55.4,29.74,SSW,203,0.0,5.4,31,0.00,,,0.00,WUHU216WMR968SP,2013-06-24 16:08:00,
2013-06-24 11:14:00,90.0,57.2,29.74,SSW,202,2.7,4.9,33,0.00,,,0.00,WUHU216WMR968SP,2013-06-24 16:14:00,
2013-06-24 11:19:00,90.9,59.0,29.74,SSW,196,3.6,5.4,33,0.00,,,0.00,WUHU216WMR968SP,2013-06-24 16:19:00,
2013-06-24 11:24:00,90.1,55.4,29.74,South,178,0.0,5.4,31,0.00,,,0.00,WUHU216WMR968SP,2013-06-24 16:24:00,
2013-06-24 11:29:00,90.0,57.2,29.74,SSW,197,0.0,3.6,33,0.00,,,0.00,WUHU216WMR968SP,2013-06-24 16:29:00,
2013-06-24 11:34:00,90.7,57.2,29.74,SW,230,0.0,4.0,32,0.00,,,0.00,WUHU216WMR968SP,2013-06-24 16:34:00,
2013-06-24 11:39:00,90.7,57.2,29.74,WSW,250,2.2,4.9,32,0.00,,,0.00,WUHU216WMR968SP,2013-06-24 16:39:00,
2013-06-24 11:44:00,90.7,57.2,29.74,West,269,2.7,4.9,31,0.00,,,0.00,WUHU216WMR968SP,2013-06-24 16:44:00,
2013-06-24 11:50:00,91.6,57.2,29.74,South,179,3.1,4.0,31,0.00,,,0.00,WUHU216WMR968SP,2013-06-24 16:50:00,
2013-06-24 11:55:00,92.3,55.4,29.74,SSW,200,3.6,6.3,28,0.00,,,0.00,WUHU216WMR968SP,2013-06-24 16:55:00,
2013-06-24 12:00:00,91.9,55.4,29.74,West,263,0.0,6.3,29,0.00,,,0.00,WUHU216WMR968SP,2013-06-24 17:00:00,
2013-06-24 12:05:00,91.4,53.6,29.74,SSW,198,2.6,5.4,28,0.00,,,0.00,WUHU216WMR968SP,2013-06-24 17:05:00,
2013-06-24 12:10:00,91.6,55.4,29.74,SW,216,3.1,5.8,29,0.00,,,0.00,WUHU216WMR968SP,2013-06-24 17:10:00,
2013-06-24 12:15:00,91.6,53.6,29.74,South,183,2.2,5.8,28,0.00,,,0.00,WUHU216WMR968SP,2013-06-24 17:15:00,
2013-06-24 12:20:00,91.6,55.4,29.74,SW,225,2.7,5.8,30,0.00,,,0.00,WUHU216WMR968SP,2013-06-24 17:20:00,
2013-06-24 12:25:00,92.5,55.4,29.74,South,186,3.6,5.4,28,0.00,,,0.00,WUHU216WMR968SP,2013-06-24 17:25:00,
2013-06-24 12:30:00,92.5,53.6,29.74,SSW,211,4.6,8.7,27,0.00,,,0.00,WUHU216WMR968SP,2013-06-24 17:30:00,
2013-06-24 12:35:00,93.2,53.6,29.74,SE,144,3.1,8.7,27,0.00,,,0.00,WUHU216WMR968SP,2013-06-24 17:35:00,
2013-06-24 12:41:00,93.9,53.6,29.74,SSW,203,3.6,6.3,27,0.00,,,0.00,WUHU216WMR968SP,2013-06-24 17:41:00,
2013-06-24 12:46:00,94.1,55.4,29.74,SSE,155,2.7,6.3,27,0.00,,,0.00,WUHU216WMR968SP,2013-06-24 17:46:00,
2013-06-24 12:51:00,94.1,57.2,29.74,SSW,200,3.1,5.4,28,0.00,,,0.00,WUHU216WMR968SP,2013-06-24 17:51:00,
2013-06-24 12:57:00,94.3,53.6,29.71,SSW,197,6.7,8.7,25,0.00,,,0.00,WUHU216WMR968SP,2013-06-24 17:57:00,
2013-06-24 13:02:00,94.3,53.6,29.71,SW,214,3.5,8.7,25,0.00,,,0.00,WUHU216WMR968SP,2013-06-24 18:02:00,
2013-06-24 13:07:00,92.8,53.6,29.71,SSW,195,3.1,6.7,27,0.00,,,0.00,WUHU216WMR968SP,2013-06-24 18:07:00,
2013-06-24 13:12:00,92.3,55.4,29.71,SSW,194,2.2,4.9,28,0.00,,,0.00,WUHU216WMR968SP,2013-06-24 18:12:00,
2013-06-24 13:17:00,92.8,53.6,29.71,SW,214,3.5,5.8,27,0.00,,,0.00,WUHU216WMR968SP,2013-06-24 18:17:00,
2013-06-24 13:23:00,93.0,53.6,29.71,SSE,168,2.8,6.3,27,0.00,,,0.00,WUHU216WMR968SP,2013-06-24 18:23:00,
2013-06-24 13:27:00,93.2,53.6,29.71,WSW,240,3.1,6.3,27,0.00,,,0.00,WUHU216WMR968SP,2013-06-24 18:27:00,
2013-06-24 13:33:00,93.2,53.6,29.71,South,171,2.2,4.0,27,0.00,,,0.00,WUHU216WMR968SP,2013-06-24 18:33:00,
2013-06-24 13:38:00,93.0,53.6,29.71,SE,145,4.0,5.8,26,0.00,,,0.00,WUHU216WMR968SP,2013-06-24 18:38:00,
2013-06-24 13:43:00,93.0,55.4,29.71,South,186,2.7,5.8,28,0.00,,,0.00,WUHU216WMR968SP,2013-06-24 18:43:00,
2013-06-24 13:48:00,93.6,53.6,29.71,SSE,153,2.9,6.3,27,0.00,,,0.00,WUHU216WMR968SP,2013-06-24 18:48:00,
2013-06-24 13:53:00,93.6,50.0,29.68,SSW,202,5.6,6.3,23,0.00,,,0.00,WUHU216WMR968SP,2013-06-24 18:53:00,
2013-06-24 13:58:00,93.7,53.6,29.68,SSE,153,3.1,6.3,27,0.00,,,0.00,WUHU216WMR968SP,2013-06-24 18:58:00,
2013-06-24 14:03:00,93.6,53.6,29.68,SSW,201,2.8,5.8,26,0.00,,,0.00,WUHU216WMR968SP,2013-06-24 19:03:00,
2013-06-24 14:08:00,93.9,53.6,29.68,SSW,195,4.9,5.8,27,0.00,,,0.00,WUHU216WMR968SP,2013-06-24 19:08:00,
2013-06-24 14:13:00,94.3,55.4,29.68,SSW,208,3.7,6.3,26,0.00,,,0.00,WUHU216WMR968SP,2013-06-24 19:13:00,
2013-06-24 14:18:00,93.9,53.6,29.68,South,189,3.7,6.3,26,0.00,,,0.00,WUHU216WMR968SP,2013-06-24 19:18:00,
2013-06-24 14:24:00,93.2,48.2,29.68,SSW,200,2.2,5.8,22,0.00,,,0.00,WUHU216WMR968SP,2013-06-24 19:24:00,
2013-06-24 14:29:00,92.3,53.6,29.68,SSE,155,2.3,4.9,26,0.00,,,0.00,WUHU216WMR968SP,2013-06-24 19:29:00,
2013-06-24 14:34:00,93.0,53.6,29.68,South,173,6.3,8.1,27,0.00,,,0.00,WUHU216WMR968SP,2013-06-24 19:34:00,
2013-06-24 14:39:00,93.7,53.6,29.68,SSW,192,3.4,8.1,27,0.00,,,0.00,WUHU216WMR968SP,2013-06-24 19:39:00,
2013-06-24 14:44:00,93.9,51.8,29.68,ESE,106,2.7,6.3,24,0.00,,,0.00,WUHU216WMR968SP,2013-06-24 19:44:00,
2013-06-24 14:49:00,93.7,53.6,29.68,SSW,194,5.6,7.2,27,0.00,,,0.00,WUHU216WMR968SP,2013-06-24 19:49:00,
2013-06-24 14:54:00,93.9,51.8,29.68,SSE,147,3.6,7.2,25,0.00,,,0.00,WUHU216WMR968SP,2013-06-24 19:54:00,
2013-06-24 14:59:00,93.7,53.6,29.68,SSE,153,2.2,6.3,27,0.00,,,0.00,WUHU216WMR968SP,2013-06-24 19:59:00,
2013-06-24 15:04:00,93.6,53.6,29.68,SSW,196,6.3,8.1,26,0.00,,,0.00,WUHU216WMR968SP,2013-06-24 20:04:00,
2013-06-24 15:09:00,93.6,53.6,29.68,South,176,4.5,8.1,27,0.00,,,0.00,WUHU216WMR968SP,2013-06-24 20:09:00,
2013-06-24 15:14:00,93.6,53.6,29.68,SSE,162,3.1,6.3,26,0.00,,,0.00,WUHU216WMR968SP,2013-06-24 20:14:00,
2013-06-24 15:19:00,93.6,53.6,29.68,SSW,192,4.5,6.3,27,0.00,,,0.00,WUHU216WMR968SP,2013-06-24 20:19:00,
2013-06-24 15:24:00,92.8,53.6,29.68,South,187,4.1,6.3,27,0.00,,,0.00,WUHU216WMR968SP,2013-06-24 20:24:00,
2013-06-24 15:29:00,92.7,55.4,29.68,South,182,2.8,6.3,28,0.00,,,0.00,WUHU216WMR968SP,2013-06-24 20:29:00,
2013-06-24 15:34:00,93.4,53.6,29.68,SSW,193,4.9,6.3,27,0.00,,,0.00,WUHU216WMR968SP,2013-06-24 20:34:00,
2013-06-24 15:39:00,93.7,53.6,29.68,SSE,148,4.0,8.3,27,0.00,,,0.00,WUHU216WMR968SP,2013-06-24 20:39:00,
2013-06-24 15:44:00,94.3,55.4,29.68,South,184,4.4,8.3,27,0.00,,,0.00,WUHU216WMR968SP,2013-06-24 20:44:00,
2013-06-24 15:50:00,94.1,55.4,29.68,SSE,164,4.4,8.1,27,0.00,,,0.00,WUHU216WMR968SP,2013-06-24 20:50:00,
2013-06-24 15:55:00,93.4,53.6,29.68,SSE,162,5.4,6.7,27,0.00,,,0.00,WUHU216WMR968SP,2013-06-24 20:55:00,
2013-06-24 16:00:00,92.7,55.4,29.68,South,172,3.6,6.3,28,0.00,,,0.00,WUHU216WMR968SP,2013-06-24 21:00:00,
2013-06-24 16:05:00,92.8,55.4,29.68,South,169,3.6,5.4,28,0.00,,,0.00,WUHU216WMR968SP,2013-06-24 21:05:00,
2013-06-24 16:10:00,92.3,55.4,29.68,SSW,198,2.7,5.4,28,0.00,,,0.00,WUHU216WMR968SP,2013-06-24 21:10:00,
2013-06-24 16:16:00,92.1,53.6,29.68,East,81,4.0,6.3,28,0.00,,,0.00,WUHU216WMR968SP,2013-06-24 21:16:00,
2013-06-24 16:21:00,92.1,53.6,29.68,South,173,4.5,7.2,28,0.00,,,0.00,WUHU216WMR968SP,2013-06-24 21:21:00,
2013-06-24 16:26:00,91.9,53.6,29.68,South,184,3.6,7.2,28,0.00,,,0.00,WUHU216WMR968SP,2013-06-24 21:26:00,
2013-06-24 16:31:00,91.8,53.6,29.68,SSE,160,2.8,7.2,28,0.00,,,0.00,WUHU216WMR968SP,2013-06-24 21:31:00,
2013-06-24 16:36:00,91.0,53.6,29.68,SSE,154,3.5,7.2,28,0.00,,,0.00,WUHU216WMR968SP,2013-06-24 21:36:00,
2013-06-24 16:41:00,90.7,53.6,29.65,South,178,3.1,6.3,28,0.00,,,0.00,WUHU216WMR968SP,2013-06-24 21:41:00,
2013-06-24 16:46:00,91.0,55.4,29.65,SE,128,3.6,6.3,29,0.00,,,0.00,WUHU216WMR968SP,2013-06-24 21:46:00,
2013-06-24 16:51:00,91.2,53.6,29.65,SSE,159,3.1,6.3,28,0.00,,,0.00,WUHU216WMR968SP,2013-06-24 21:51:00,
2013-06-24 16:56:00,91.4,53.6,29.65,SE,145,3.4,5.8,28,0.00,,,0.00,WUHU216WMR968SP,2013-06-24 21:56:00,
2013-06-24 17:01:00,91.8,55.4,29.65,SSE,154,3.1,5.4,29,0.00,,,0.00,WUHU216WMR968SP,2013-06-24 22:01:00,
2013-06-24 17:06:00,91.9,55.4,29.65,SSE,159,3.7,5.4,29,0.00,,,0.00,WUHU216WMR968SP,2013-06-24 22:06:00,
2013-06-24 17:11:00,91.9,53.6,29.65,SE,131,4.0,6.7,28,0.00,,,0.00,WUHU216WMR968SP,2013-06-24 22:11:00,
2013-06-24 17:17:00,91.2,55.4,29.65,SSE,161,2.8,7.6,29,0.00,,,0.00,WUHU216WMR968SP,2013-06-24 22:17:00,
2013-06-24 17:22:00,90.7,55.4,29.65,East,101,3.1,7.6,29,0.00,,,0.00,WUHU216WMR968SP,2013-06-24 22:22:00,
2013-06-24 17:27:00,89.6,55.4,29.65,South,186,3.1,5.8,31,0.00,,,0.00,WUHU216WMR968SP,2013-06-24 22:27:00,
2013-06-24 17:32:00,89.2,55.4,29.65,SE,125,3.5,5.8,32,0.00,,,0.00,WUHU216WMR968SP,2013-06-24 22:32:00,
2013-06-24 17:38:00,88.7,57.2,29.65,South,185,2.4,5.8,33,0.00,,,0.00,WUHU216WMR968SP,2013-06-24 22:38:00,
2013-06-24 17:43:00,88.2,57.2,29.65,SSE,152,3.1,4.9,35,0.00,,,0.00,WUHU216WMR968SP,2013-06-24 22:43:00,
2013-06-24 17:48:00,88.5,57.2,29.65,SE,145,3.2,5.8,35,0.00,,,0.00,WUHU216WMR968SP,2013-06-24 22:48:00,
2013-06-24 17:53:00,88.9,57.2,29.65,South,183,3.1,5.8,34,0.00,,,0.00,WUHU216WMR968SP,2013-06-24 22:53:00,
2013-06-24 17:59:00,89.1,57.2,29.65,South,183,4.5,6.3,33,0.00,,,0.00,WUHU216WMR968SP,2013-06-24 22:59:00,
2013-06-24 18:04:00,89.6,55.4,29.65,SSW,197,3.6,6.3,32,0.00,,,0.00,WUHU216WMR968SP,2013-06-24 23:04:00,
2013-06-24 18:09:00,89.4,55.4,29.65,SE,143,3.1,5.8,32,0.00,,,0.00,WUHU216WMR968SP,2013-06-24 23:09:00,
2013-06-24 18:14:00,89.8,55.4,29.65,SSE,155,2.7,6.3,32,0.00,,,0.00,WUHU216WMR968SP,2013-06-24 23:14:00,
2013-06-24 18:19:00,91.9,57.2,29.65,SSE,152,2.7,6.3,31,0.00,,,0.00,WUHU216WMR968SP,2013-06-24 23:19:00,
2013-06-24 18:24:00,91.9,55.4,29.65,SSE,155,3.1,4.9,30,0.00,,,0.00,WUHU216WMR968SP,2013-06-24 23:24:00,
2013-06-24 18:29:00,93.6,55.4,29.65,SSE,163,3.6,7.6,28,0.00,,,0.00,WUHU216WMR968SP,2013-06-24 23:29:00,
2013-06-24 18:35:00,91.8,53.6,29.65,South,173,3.6,7.6,28,0.00,,,0.00,WUHU216WMR968SP,2013-06-24 23:35:00,
2013-06-24 18:40:00,90.9,55.4,29.65,South,174,3.5,6.3,29,0.00,,,0.00,WUHU216WMR968SP,2013-06-24 23:40:00,
2013-06-24 18:45:00,90.9,55.4,29.65,South,177,2.7,5.8,29,0.00,,,0.00,WUHU216WMR968SP,2013-06-24 23:45:00,
2013-06-24 18:50:00,91.8,55.4,29.65,South,186,2.2,5.4,29,0.00,,,0.00,WUHU216WMR968SP,2013-06-24 23:50:00,
2013-06-24 18:55:00,93.6,55.4,29.65,South,173,2.5,4.0,28,0.00,,,0.00,WUHU216WMR968SP,2013-06-24 23:55:00,
2013-06-24 19:01:00,95.4,55.4,29.65,South,175,2.2,4.0,27,0.00,,,0.00,WUHU216WMR968SP,2013-06-25 00:01:00,
2013-06-24 19:06:00,95.5,55.4,29.65,SSE,149,3.1,4.0,26,0.00,,,0.00,WUHU216WMR968SP,2013-06-25 00:06:00,
2013-06-24 19:11:00,95.5,55.4,29.65,SSW,194,2.7,4.0,26,0.00,,,0.00,WUHU216WMR968SP,2013-06-25 00:11:00,
2013-06-24 19:16:00,95.0,55.4,29.65,South,189,0.0,4.5,26,0.00,,,0.00,WUHU216WMR968SP,2013-06-25 00:16:00,
2013-06-24 19:21:00,94.3,55.4,29.65,South,189,0.0,4.5,27,0.00,,,0.00,WUHU216WMR968SP,2013-06-25 00:21:00,
2013-06-24 19:26:00,92.1,53.6,29.65,South,189,0.0,2.7,28,0.00,,,0.00,WUHU216WMR968SP,2013-06-25 00:26:00,
2013-06-24 19:31:00,90.1,53.6,29.65,South,189,0.0,0.0,30,0.00,,,0.00,WUHU216WMR968SP,2013-06-25 00:31:00,
2013-06-24 19:36:00,87.8,53.6,29.65,South,189,0.0,0.0,32,0.00,,,0.00,WUHU216WMR968SP,2013-06-25 00:36:00,
2013-06-24 19:41:00,86.4,57.2,29.65,South,189,0.0,0.0,37,0.00,,,0.00,WUHU216WMR968SP,2013-06-25 00:41:00,
2013-06-24 19:46:00,85.3,59.0,29.65,South,189,0.0,0.0,39,0.00,,,0.00,WUHU216WMR968SP,2013-06-25 00:46:00,
2013-06-24 19:51:00,84.4,59.0,29.65,SSE,166,0.0,0.0,42,0.00,,,0.00,WUHU216WMR968SP,2013-06-25 00:51:00,
2013-06-24 19:57:00,83.5,60.8,29.65,South,181,0.0,0.0,44,0.00,,,0.00,WUHU216WMR968SP,2013-06-25 00:57:00,
2013-06-24 20:02:00,82.6,60.8,29.65,South,181,0.0,0.0,48,0.00,,,0.00,WUHU216WMR968SP,2013-06-25 01:02:00,
2013-06-24 20:07:00,82.0,60.8,29.65,South,181,0.0,0.0,48,0.00,,,0.00,WUHU216WMR968SP,2013-06-25 01:07:00,
2013-06-24 20:12:00,81.9,62.6,29.65,South,181,0.0,2.2,50,0.00,,,0.00,WUHU216WMR968SP,2013-06-25 01:12:00,
2013-06-24 20:17:00,81.3,60.8,29.65,South,181,0.0,2.2,52,0.00,,,0.00,WUHU216WMR968SP,2013-06-25 01:17:00,
2013-06-24 20:22:00,80.8,62.6,29.65,South,181,0.0,0.0,53,0.00,,,0.00,WUHU216WMR968SP,2013-06-25 01:22:00,
2013-06-24 20:27:00,80.4,64.4,29.65,South,181,0.0,0.0,56,0.00,,,0.00,WUHU216WMR968SP,2013-06-25 01:27:00,
2013-06-24 20:33:00,80.1,64.4,29.65,South,181,0.0,0.0,58,0.00,,,0.00,WUHU216WMR968SP,2013-06-25 01:33:00,
2013-06-24 20:38:00,79.7,64.4,29.65,South,181,0.0,0.0,58,0.00,,,0.00,WUHU216WMR968SP,2013-06-25 01:38:00,
2013-06-24 20:43:00,79.3,62.6,29.65,South,181,0.0,0.0,59,0.00,,,0.00,WUHU216WMR968SP,2013-06-25 01:43:00,
2013-06-24 20:48:00,79.2,62.6,29.65,South,181,0.0,0.0,59,0.00,,,0.00,WUHU216WMR968SP,2013-06-25 01:48:00,
2013-06-24 20:53:00,79.0,64.4,29.65,South,181,0.0,0.0,60,0.00,,,0.00,WUHU216WMR968SP,2013-06-25 01:53:00,
2013-06-24 20:58:00,79.0,64.4,29.65,South,181,0.0,2.7,60,0.00,,,0.00,WUHU216WMR968SP,2013-06-25 01:58:00,
2013-06-24 21:05:00,79.0,64.4,29.65,South,181,0.0,2.7,60,0.00,,,0.00,WUHU216WMR968SP,2013-06-25 02:05:00,
2013-06-24 21:10:00,79.0,64.4,29.65,South,181,0.0,2.7,60,0.00,,,0.00,WUHU216WMR968SP,2013-06-25 02:10:00,
2013-06-24 21:15:00,79.0,64.4,29.65,South,181,0.0,0.0,60,0.00,,,0.00,WUHU216WMR968SP,2013-06-25 02:15:00,
2013-06-24 21:20:00,78.8,64.4,29.65,South,181,0.0,0.0,61,0.00,,,0.00,WUHU216WMR968SP,2013-06-25 02:20:00,
2013-06-24 21:25:00,78.8,64.4,29.65,South,188,0.0,0.0,61,0.00,,,0.00,WUHU216WMR968SP,2013-06-25 02:25:00,
2013-06-24 21:31:00,78.8,64.4,29.65,South,182,0.0,3.1,61,0.00,,,0.00,WUHU216WMR968SP,2013-06-25 02:31:00,
2013-06-24 21:36:00,78.8,64.4,29.65,SSE,167,0.0,3.1,61,0.00,,,0.00,WUHU216WMR968SP,2013-06-25 02:36:00,
2013-06-24 21:41:00,78.8,64.4,29.65,South,187,0.0,3.1,62,0.00,,,0.00,WUHU216WMR968SP,2013-06-25 02:41:00,
2013-06-24 21:47:00,78.8,64.4,29.65,SSE,156,2.2,4.0,62,0.00,,,0.00,WUHU216WMR968SP,2013-06-25 02:47:00,
2013-06-24 21:52:00,78.8,64.4,29.65,SSE,157,0.0,4.0,62,0.00,,,0.00,WUHU216WMR968SP,2013-06-25 02:52:00,
2013-06-24 21:57:00,78.6,64.4,29.68,East,91,0.0,3.6,63,0.00,,,0.00,WUHU216WMR968SP,2013-06-25 02:57:00,
2013-06-24 22:02:00,78.6,64.4,29.68,South,178,0.0,0.0,63,0.00,,,0.00,WUHU216WMR968SP,2013-06-25 03:02:00,
2013-06-24 22:07:00,78.6,66.2,29.68,South,178,0.0,2.7,64,0.00,,,0.00,WUHU216WMR968SP,2013-06-25 03:07:00,
2013-06-24 22:12:00,78.4,66.2,29.68,South,178,0.0,2.7,64,0.00,,,0.00,WUHU216WMR968SP,2013-06-25 03:12:00,
2013-06-24 22:17:00,77.9,66.2,29.68,South,178,0.0,0.0,65,0.00,,,0.00,WUHU216WMR968SP,2013-06-25 03:17:00,
2013-06-24 22:22:00,77.5,66.2,29.68,South,178,0.0,0.0,67,0.00,,,0.00,WUHU216WMR968SP,2013-06-25 03:22:00,
2013-06-24 22:27:00,77.4,66.2,29.68,South,178,0.0,0.0,68,0.00,,,0.00,WUHU216WMR968SP,2013-06-25 03:27:00,
2013-06-24 22:32:00,77.2,66.2,29.68,South,178,0.0,0.0,68,0.00,,,0.00,WUHU216WMR968SP,2013-06-25 03:32:00,
2013-06-24 22:38:00,77.2,66.2,29.68,South,178,0.0,2.2,69,0.00,,,0.00,WUHU216WMR968SP,2013-06-25 03:38:00,
2013-06-24 22:43:00,77.2,66.2,29.68,South,178,0.0,2.2,70,0.00,,,0.00,WUHU216WMR968SP,2013-06-25 03:43:00,
2013-06-24 22:49:00,77.0,66.2,29.68,South,178,0.0,0.0,70,0.00,,,0.00,WUHU216WMR968SP,2013-06-25 03:49:00,
2013-06-24 22:54:00,77.0,66.2,29.68,South,178,0.0,2.2,70,0.00,,,0.00,WUHU216WMR968SP,2013-06-25 03:54:00,
2013-06-24 22:59:00,76.8,66.2,29.68,South,178,0.0,2.7,71,0.00,,,0.00,WUHU216WMR968SP,2013-06-25 03:59:00,
2013-06-24 23:01:00,76.8,66.2,29.68,East,92,0.0,2.7,71,0.00,,,0.00,WUHU216WMR968SP,2013-06-25 04:01:00,
2013-06-24 23:06:00,76.6,66.2,29.68,ESE,117,0.0,2.7,71,0.00,,,0.00,WUHU216WMR968SP,2013-06-25 04:06:00,
2013-06-24 23:11:00,76.5,66.2,29.71,SSE,150,0.0,0.0,71,0.00,,,0.00,WUHU216WMR968SP,2013-06-25 04:11:00,
2013-06-24 23:16:00,76.3,68.0,29.71,South,187,2.2,3.6,72,0.00,,,0.00,WUHU216WMR968SP,2013-06-25 04:16:00,
2013-06-24 23:21:00,76.3,68.0,29.71,SSE,155,2.2,3.6,72,0.00,,,0.00,WUHU216WMR968SP,2013-06-25 04:21:00,
2013-06-24 23:26:00,76.1,68.0,29.68,SSE,168,2.2,3.6,72,0.00,,,0.00,WUHU216WMR968SP,2013-06-25 04:26:00,
2013-06-24 23:31:00,76.3,68.0,29.68,SSE,166,0.0,4.0,73,0.00,,,0.00,WUHU216WMR968SP,2013-06-25 04:31:00,
2013-06-24 23:36:00,76.5,68.0,29.68,South,171,2.2,4.0,75,0.00,,,0.00,WUHU216WMR968SP,2013-06-25 04:36:00,
2013-06-24 23:41:00,76.6,68.0,29.68,SE,124,3.1,4.0,75,0.00,,,0.00,WUHU216WMR968SP,2013-06-25 04:41:00,
2013-06-24 23:46:00,76.8,68.0,29.68,South,180,2.7,4.0,74,0.00,,,0.00,WUHU216WMR968SP,2013-06-25 04:46:00,
2013-06-24 23:51:00,76.8,68.0,29.68,SSE,164,3.5,6.3,73,0.00,,,0.00,WUHU216WMR968SP,2013-06-25 04:51:00,
2013-06-24 23:56:00,76.8,68.0,29.68,South,171,2.6,6.3,73,0.00,,,0.00,WUHU216WMR968SP,2013-06-25 04:56:00,